SCD 1

Last updated on Sun Jun 21 2026 00:02:51 GMT+0000 (Coordinated Universal Time)

1 22490U 93009B 26171.33203697 .00000313 00000+0 34510-4 0 9991 2 22490 24.9675 188.1587 0041952 170.9157 213.0702 14.46119674761575
UTC large
Height (km)
Speed (km/s)
/
Latitude / Longitude
Inclination (degrees)
Orbital Period (minutes)
Azimuth
Elevation
Range (km)
Doppler Factor

Next 0 passes for location: London (51.5072 / 0.1276)

No passes found over London.
SCD 1